Weather History for Greenwood, SC

Change the Weather History Date:

Friday, March 15, 2013

  Actual Average (KAND) Record (KAND)
Temperature  
Mean Temperature 50 °F -  
Max Temperature 71 °F 65 °F 84 °F (1967)
Min Temperature 28 °F 40 °F 14 °F (1993)
Degree Days  
Heating Degree Days 16    
Moisture  
Dew Point 30 °F    
Average Humidity 45    
Maximum Humidity 82    
Minimum Humidity 28    
Precipitation  
Precipitation 0.00 in - - ()
Sea Level Pressure  
Sea Level Pressure 30.11 in    
Wind  
Wind Speed 6 mph (SW)    
Max Wind Speed 18 mph    
Max Gust Speed 29 mph    
Visibility 10 miles    
Events      
Averages and records for this station are not official NWS values.
T = Trace of Precipitation, MM = Missing Value Source: NWS Daily Summary

Daily Weather History Graph

Daily Weather History Graph

Search for Another Location

Airport:

Trip Planner

Search our weather history database for the weather conditions in past years. The results will help you decide how hot, cold, wet, or windy it might be!

Date:

Astronomy

Mar. 15, 2013 Rise Set
Actual Time 7:38 AM EDT 7:36 PM EDT
Civil Twilight 7:13 AM EDT 8:01 PM EDT
Nautical Twilight 6:44 AM EDT 8:30 PM EDT
Astronomical Twilight 6:15 AM EDT 9:00 PM EDT
Moon 9:39 AM EDT (3/15) 11:36 PM EDT (3/15)
Length of Visible Light 12h 47m
Length of Day
11h 57m
Waxing Crescent, 15% of the Moon is Illuminated
Mar 15
Waxing Crescent
Mar 19
First Quarter
Mar 27
Full
Apr 3
Last Quarter
Apr 10
New

Hourly Weather History & Observations

Time (EDT) Temp. Windchill Dew Point Humidity Pressure Visibility Wind Dir Wind Speed Gust Speed Precip Events Conditions
12:56 AM 44.1 °F 42.5 °F 17.1 °F 34% 30.20 in 10.0 mi NW 3.5 mph - N/A   Clear
1:56 AM 39.9 °F 37.8 °F 19.0 °F 43% 30.21 in 10.0 mi WNW 3.5 mph - N/A   Clear
2:56 AM 35.1 °F - 21.0 °F 57% 30.21 in 10.0 mi Calm Calm - N/A   Clear
3:56 AM 33.1 °F - 21.9 °F 64% 30.21 in 10.0 mi Calm Calm - N/A   Clear
4:56 AM 30.9 °F - 24.1 °F 76% 30.22 in 10.0 mi Calm Calm - N/A   Clear
6:56 AM 28.9 °F - 24.1 °F 82% 30.22 in 10.0 mi Calm Calm - N/A   Clear
7:56 AM 30.0 °F - 24.1 °F 79% 30.24 in 10.0 mi Calm Calm - N/A   Clear
8:56 AM 41.0 °F 39.0 °F 26.1 °F 55% 30.23 in 10.0 mi South 3.5 mph - N/A   Clear
9:56 AM 48.0 °F - 25.0 °F 41% 30.22 in 10.0 mi South 4.6 mph - N/A   Clear
10:56 AM 51.1 °F - 32.0 °F 48% 30.21 in 10.0 mi SW 6.9 mph - N/A   Clear
11:56 AM 57.0 °F - 30.9 °F 37% 30.18 in 10.0 mi SW 10.4 mph 16.1 mph N/A   Clear
12:56 PM 62.1 °F - 30.9 °F 31% 30.15 in 10.0 mi WSW 8.1 mph 19.6 mph N/A   Clear
1:56 PM 66.0 °F - 32.0 °F 28% 30.10 in 10.0 mi SW 13.8 mph 21.9 mph N/A   Clear
2:56 PM 68.0 °F - 34.0 °F 28% 30.06 in 10.0 mi WSW 15.0 mph 21.9 mph N/A   Clear
3:56 PM 70.0 °F - 35.1 °F 28% 30.02 in 10.0 mi WSW 18.4 mph 24.2 mph N/A   Clear
4:56 PM 71.1 °F - 36.0 °F 28% 30.00 in 10.0 mi SW 16.1 mph 28.8 mph N/A   Clear
5:56 PM 71.1 °F - 36.0 °F 28% 29.98 in 10.0 mi WSW 17.3 mph 24.2 mph N/A   Clear
6:56 PM 69.1 °F - 37.0 °F 31% 29.98 in 10.0 mi SW 12.7 mph 21.9 mph N/A   Clear
7:56 PM 64.9 °F - 37.9 °F 37% 29.98 in 10.0 mi SW 9.2 mph - N/A   Clear
8:56 PM 62.1 °F - 39.0 °F 43% 29.98 in 10.0 mi SSW 9.2 mph - N/A   Clear
9:56 PM 61.0 °F - 39.0 °F 44% 29.98 in 10.0 mi SSW 8.1 mph - N/A   Clear
10:56 PM 62.1 °F - 39.0 °F 43% 29.98 in 10.0 mi SSW 10.4 mph - N/A   Clear
11:56 PM 61.0 °F - 39.9 °F 46% 29.97 in 10.0 mi SW 13.8 mph - N/A   Clear